Theta_e
324 320 323 320 307 306 300 302 309 309 309 315 318 314 313 313 309 308 334 334 337 341 346 346 346 344 345 345 346 348 348 345 342 341 343 341 341 344 342 341 341 339 340 341 342 342 342 341 340
320 319 322 315 304 298 299 305 305 310 314 317 317 313 311 313 323 328 331 335 340 343 346 345 343 345 343 344 346 348 348 346 342 341 342 342 340 342 341 340 341 340 338 338 339 339 339 339 339
319 318 314 308 305 300 299 305 308 310 314 314 313 317 313 315 325 330 336 336 341 342 346 342 343 345 343 344 346 347 348 347 343 341 340 341 338 339 340 340 340 341 338 337 338 338 338 338 338
316 315 313 304 301 303 304 306 310 309 309 313 314 310 318 327 328 335 337 337 340 342 344 342 344 345 344 344 345 346 347 346 345 342 340 339 338 339 341 342 341 341 340 340 340 339 339 338 338
316 313 304 303 303 303 305 308 310 308 309 311 312 308 314 326 336 338 336 338 339 342 344 343 343 344 345 344 344 345 346 346 345 343 339 339 337 338 340 339 339 338 339 339 338 338 338 337 337
308 310 302 300 302 304 306 309 310 309 309 310 309 308 316 332 334 336 337 339 341 342 343 343 338 340 342 343 344 344 344 345 345 343 340 339 337 337 338 337 337 335 338 338 337 337 336 335 334
308 305 303 303 301 302 304 310 308 308 307 307 312 306 318 328 335 337 338 340 341 343 341 341 341 338 337 339 340 341 342 343 344 343 341 339 339 338 337 336 333 334 335 336 335 334 334 333 332
309 307 302 303 300 300 307 307 309 307 306 312 314 306 309 325 336 337 338 339 340 341 339 340 340 339 339 340 334 336 338 340 341 340 336 333 333 333 332 330 333 333 335 335 333 332 332 331 329
310 303 300 301 302 303 307 305 308 309 307 309 313 311 319 332 336 336 336 335 337 337 338 339 338 339 338 338 334 332 333 334 334 333 329 328 333 332 329 328 331 332 333 334 333 331 329 327 326
306 302 303 307 307 305 307 307 307 306 306 306 310 315 326 332 333 332 331 331 332 333 336 337 339 339 338 336 337 337 337 339 340 339 335 335 334 333 330 325 326 328 329 330 329 326 324 325 326
305 302 306 306 307 307 307 307 309 306 304 307 307 312 324 328 330 331 331 331 331 333 335 337 338 338 337 336 337 337 335 337 338 338 337 335 333 332 330 328 327 327 322 325 325 324 326 326 326
301 303 304 305 304 305 305 308 305 307 307 309 312 314 321 326 327 328 330 333 333 333 333 336 338 338 337 337 337 337 336 336 336 337 336 335 333 331 330 327 326 328 325 324 324 324 325 325 325
301 302 301 303 303 304 305 305 305 305 310 309 309 312 318 322 326 328 329 331 335 332 333 335 337 337 337 336 337 335 336 335 335 335 336 334 332 331 329 327 328 327 325 323 323 323 323 323 323
302 302 302 302 301 302 303 303 302 306 308 308 307 309 313 318 323 326 328 329 331 334 333 334 336 337 337 336 336 335 336 335 335 334 334 333 332 331 328 326 326 326 324 322 322 322 322 322 322
301 298 300 300 301 300 302 299 299 307 304 303 304 306 309 313 319 323 327 329 331 333 335 333 334 336 337 337 336 336 335 335 334 333 333 332 332 330 327 326 326 325 324 321 321 321 322 320 321
298 299 294 300 300 300 301 296 304 306 303 303 305 306 306 310 314 321 325 328 331 333 334 336 334 334 335 336 336 336 335 334 332 333 333 331 331 330 327 325 325 325 322 320 319 319 318 319 318
296 292 294 294 300 300 298 297 303 303 301 302 304 305 305 307 310 316 323 326 329 332 333 334 335 333 334 335 335 335 335 333 333 332 332 331 330 329 327 326 325 324 320 318 318 318 318 317 317
292 292 293 294 296 297 297 297 301 302 302 302 304 305 305 305 306 309 314 322 327 330 333 334 336 334 333 334 334 335 334 332 334 332 331 332 330 329 327 326 325 323 320 318 318 317 318 317 316
295 294 292 295 296 296 296 296 299 302 302 302 303 304 306 306 309 310 310 312 318 326 329 331 332 335 333 331 330 330 329 330 330 331 331 331 330 329 328 327 324 321 319 318 316 315 314 312 316
294 293 292 293 295 295 296 295 299 301 302 303 303 304 306 307 308 308 308 310 310 312 321 327 330 333 335 332 332 332 331 331 332 331 329 329 330 329 327 326 323 320 317 314 312 307 306 307 311
293 292 292 291 293 295 293 292 295 300 301 303 304 305 306 307 307 308 308 307 309 310 311 314 324 330 333 332 331 331 331 330 329 329 327 327 327 327 327 326 322 317 314 311 309 308 308 306 303
290 294 293 291 291 287 293 286 295 297 297 298 300 303 304 304 304 305 306 307 308 308 311 310 313 320 329 335 330 329 327 325 327 328 329 326 325 324 323 322 321 318 314 312 311 310 306 306 302
292 295 293 292 291 290 290 287 292 294 294 297 301 302 303 305 305 305 306 306 308 311 311 309 308 313 320 328 331 329 327 328 330 329 326 326 324 324 323 321 319 315 315 312 310 307 306 307 306
295 293 293 292 290 283 289 288 289 293 294 296 299 301 302 303 304 304 305 306 309 314 315 309 307 309 316 322 329 327 327 326 326 327 325 325 324 322 321 320 321 319 317 315 313 310 308 306 306
295 291 284 283 283 282 287 287 290 297 296 296 298 299 301 302 303 304 304 305 307 310 314 312 307 311 316 322 325 328 326 325 325 326 326 323 321 320 321 321 320 321 319 316 313 311 307 305 304
291 291 286 281 281 284 285 283 290 297 297 297 297 300 301 301 302 302 303 304 305 307 312 314 312 313 315 320 323 325 323 324 324 325 327 324 322 322 323 322 322 321 318 316 313 309 306 304 303
290 288 293 284 281 284 287 290 295 296 295 296 296 298 299 301 301 302 302 303 304 305 307 311 312 312 315 318 319 318 319 320 320 320 321 321 319 316 319 319 318 316 315 313 310 308 306 304 303
293 295 285 287 282 280 285 287 289 292 293 295 296 297 299 300 300 301 302 302 303 304 305 306 309 310 309 310 311 312 312 311 311 312 310 310 309 309 310 311 311 311 311 310 310 308 306 304 303
289 289 290 290 288 283 281 286 295 296 297 296 297 298 299 298 299 300 300 300 301 302 303 304 305 306 307 308 307 306 306 307 307 307 307 307 309 309 310 312 313 312 310 309 307 306 305 303 303
294 290 291 286 284 286 285 287 295 295 296 300 299 300 300 300 299 299 299 299 299 299 300 301 302 301 302 303 303 303 304 304 303 303 303 304 304 305 304 304 305 306 306 307 305 304 304 303 301
Wind_Speed
9 7 5 5 6 5 4 5 5 7 8 3 7 1 6 6 8 6 7 6 16 15 15 13 11 11 10 9 9 11 14 14 14 14 14 14 14 16 17 17 15 15 16 17 17 17 16 17 16
6 6 5 3 7 7 7 8 8 9 10 5 5 3 3 11 8 9 12 8 15 14 14 13 11 11 10 8 9 10 14 14 14 14 13 14 14 15 16 16 15 15 16 16 16 17 16 15 15
6 6 5 5 7 6 8 9 10 8 8 6 5 4 3 6 6 13 13 15 15 13 13 13 11 11 11 9 9 9 12 14 13 14 12 14 13 13 13 14 14 13 16 16 17 17 16 16 16
4 4 4 8 9 4 3 10 12 10 3 4 1 5 5 6 7 6 16 17 14 12 13 13 11 11 11 9 9 9 10 13 13 13 13 14 13 10 11 13 14 16 16 15 17 17 17 17 17
4 4 8 9 4 4 2 8 10 10 9 8 5 6 4 5 6 11 16 15 14 13 13 13 10 10 10 10 9 8 9 12 13 14 13 13 12 12 12 13 15 14 14 16 16 16 16 16 16
6 5 7 10 8 4 5 7 9 9 7 6 5 4 7 8 10 13 15 15 13 15 11 13 10 10 9 9 8 7 10 9 13 14 13 13 11 10 11 12 11 11 13 15 16 15 15 15 14
5 7 8 8 9 5 5 7 9 8 8 7 3 4 7 10 10 13 14 14 13 16 10 12 12 10 7 8 8 7 9 8 11 13 11 13 10 9 9 10 10 11 11 13 14 13 13 13 13
3 3 5 6 9 5 8 10 3 6 6 4 1 4 6 10 12 13 13 13 12 14 10 12 11 11 10 9 7 7 8 7 8 10 10 9 10 9 8 9 9 10 10 13 12 12 11 11 10
2 6 9 9 9 8 11 9 4 2 3 4 5 4 3 16 14 13 12 12 10 6 9 8 9 12 11 10 8 7 8 7 9 10 11 11 7 8 8 10 9 9 10 12 12 11 8 10 9
7 7 9 6 7 10 13 11 9 7 7 6 7 7 8 14 14 13 13 13 11 11 11 9 8 11 11 9 10 9 8 8 8 8 11 3 6 4 8 8 7 7 12 12 10 7 1 7 5
4 9 5 6 5 2 11 8 6 6 7 7 11 13 12 12 14 15 14 14 14 13 9 10 8 9 11 9 8 6 5 6 6 6 6 4 4 5 5 5 4 4 5 4 4 4 4 1 1
7 2 1 6 4 5 9 6 7 9 6 6 6 10 14 15 16 16 16 16 15 14 14 11 11 7 9 7 8 8 6 6 6 8 6 6 5 6 5 5 5 6 4 4 3 2 2 2 2
7 5 3 5 6 2 6 7 2 8 5 4 5 6 13 14 15 13 13 13 16 14 14 13 11 11 8 7 8 8 8 7 8 8 10 7 6 6 6 6 6 5 4 4 4 4 3 3 2
5 6 6 5 6 4 6 4 2 5 3 8 6 8 11 13 15 14 14 14 15 16 14 14 12 11 10 8 10 7 8 9 8 7 8 10 7 6 6 6 6 5 5 4 4 4 4 3 3
6 7 6 6 6 3 2 7 10 8 5 6 9 10 11 12 13 16 15 15 15 14 15 15 15 12 12 12 9 6 7 7 7 8 10 10 8 8 7 6 6 6 5 6 4 4 4 4 4
6 6 9 10 8 3 6 12 14 5 6 12 12 10 11 13 14 14 14 15 14 14 16 16 12 14 13 11 9 7 5 8 8 8 8 11 10 9 8 7 7 7 6 6 6 6 5 5 5
8 8 15 6 7 5 10 8 9 4 6 9 9 11 10 11 13 13 14 14 14 15 15 16 17 16 15 12 9 9 10 7 6 6 7 12 11 11 9 7 6 8 7 7 6 6 7 6 6
9 13 6 12 8 8 9 13 6 6 8 8 9 9 11 13 14 14 15 13 14 14 15 16 14 16 15 10 10 7 7 6 7 6 8 11 10 12 9 6 8 8 7 7 7 7 7 6 6
7 11 9 6 3 5 12 14 14 13 13 12 12 12 12 12 11 10 9 10 13 14 15 17 16 18 11 10 10 9 8 8 7 7 6 11 11 12 11 8 8 8 8 7 7 7 7 4 4
3 8 8 3 3 4 6 12 15 14 16 16 16 15 14 13 13 8 9 9 12 13 15 16 17 17 14 9 9 8 8 8 9 8 9 8 10 11 10 10 9 10 7 7 7 4 3 4 6
11 11 4 5 3 3 5 13 17 14 16 15 16 15 13 14 12 11 11 10 10 12 12 14 15 16 15 14 8 6 6 4 7 7 7 9 10 10 11 11 6 6 6 7 7 8 8 5 3
13 6 1 3 2 6 2 7 4 7 10 12 14 15 13 14 8 7 6 8 8 8 7 11 12 15 14 16 11 13 10 9 7 7 8 9 11 10 9 9 10 10 8 9 9 8 8 4 5
5 6 5 2 5 5 7 7 5 3 9 14 14 11 7 5 4 4 3 2 2 4 7 9 11 13 14 14 15 11 13 9 9 8 10 9 9 11 11 10 9 8 8 9 8 8 10 8 7
15 10 4 3 2 7 11 8 8 10 9 4 3 6 7 7 5 3 2 1 1 1 3 5 10 12 12 13 14 14 12 11 8 7 7 7 5 7 9 10 11 10 10 10 9 10 10 10 9
11 11 4 4 6 7 5 6 15 5 4 5 8 8 7 6 5 4 2 3 3 4 2 1 6 8 9 10 11 13 14 10 9 6 6 7 5 5 9 12 11 9 10 9 9 9 9 9 8
17 14 7 7 6 3 1 9 8 4 2 4 1 3 6 6 5 3 2 2 3 4 4 5 3 2 5 7 9 8 1 3 3 4 4 6 6 8 8 8 8 9 9 8 7 5 6 7 8
8 10 5 6 2 2 7 10 12 9 7 7 10 8 8 8 6 5 3 3 4 5 5 5 5 4 3 2 3 5 5 4 4 4 3 2 3 2 2 3 4 5 5 6 7 6 7 8 9
9 11 5 5 6 7 9 12 14 5 14 12 12 11 9 7 6 5 4 4 4 4 5 6 6 7 6 6 6 5 6 6 5 5 4 4 3 2 2 2 1 1 3 4 6 5 5 7 6
6 10 8 6 9 8 9 12 6 8 12 15 12 11 11 9 8 6 5 4 4 4 5 6 7 8 7 7 6 7 6 6 5 5 5 4 3 2 0 1 1 2 2 1 2 3 3 5 5
17 20 22 9 10 8 9 15 6 2 3 7 13 12 12 10 9 8 7 6 5 5 6 6 8 8 7 7 8 8 8 8 8 7 7 6 5 5 5 4 3 3 3 2 4 5 3 5 5
Wind_Direction
277 277 283 254 245 247 121 152 94 129 145 75 111 345 41 15 4 34 153 116 134 135 128 140 126 129 124 117 108 123 116 105 94 92 93 90 84 87 91 89 84 86 86 84 79 78 75 76 75
307 288 239 271 257 210 151 131 166 156 102 131 122 165 170 87 72 110 146 162 146 135 140 136 128 131 131 126 113 99 117 110 101 99 97 95 86 85 88 89 86 87 88 89 91 88 86 83 80
270 263 249 231 256 236 141 167 143 111 133 167 159 304 38 74 88 141 112 154 142 141 126 122 131 135 135 129 110 103 121 118 111 105 101 95 89 86 87 89 88 90 91 92 90 88 87 86 84
242 194 230 244 199 61 38 165 132 137 142 257 268 140 106 29 127 113 141 150 146 143 121 131 134 138 137 127 117 119 117 124 118 106 109 102 97 78 84 86 86 80 92 89 87 85 84 84 83
222 239 218 232 181 109 147 129 154 167 162 174 214 114 88 110 104 136 149 153 151 132 129 146 138 138 137 133 127 119 113 132 124 116 110 104 97 82 82 90 88 88 87 89 86 85 82 82 79
200 247 217 205 178 132 137 166 172 175 161 131 207 155 100 120 143 148 154 157 154 132 141 137 140 138 138 135 128 117 116 115 132 124 123 115 105 94 86 88 87 93 93 96 82 87 86 84 81
243 213 219 202 154 162 150 171 189 186 175 180 18 202 92 155 144 154 161 156 159 129 151 156 154 146 129 131 129 124 118 114 133 135 133 122 109 99 79 86 99 89 86 89 88 82 87 86 80
271 245 194 204 174 147 148 169 224 195 167 77 266 167 158 152 148 158 165 157 166 139 161 163 152 163 160 153 129 126 122 119 139 125 109 107 106 104 99 109 100 102 89 98 94 94 87 86 78
288 224 198 175 184 141 154 180 178 39 169 199 160 18 45 128 151 163 167 170 134 163 169 180 166 168 164 158 145 131 112 105 116 120 126 152 134 136 156 86 109 109 85 90 94 92 94 97 77
228 225 194 157 180 158 170 199 170 189 172 188 171 113 138 154 158 164 177 180 158 179 180 176 186 173 166 163 159 163 152 161 161 161 165 178 154 138 113 103 103 94 86 84 82 92 219 228 139
188 212 115 146 122 169 170 189 186 207 197 199 195 167 164 170 173 181 188 189 191 186 178 182 184 191 179 169 173 168 170 174 143 163 177 162 146 142 150 130 131 130 139 150 165 171 218 63 98
201 230 193 121 124 147 170 183 203 218 78 32 118 152 171 180 196 194 195 192 190 193 191 184 185 192 192 179 185 178 180 180 174 173 175 179 169 175 157 150 178 162 191 142 171 168 122 132 92
229 158 120 118 132 154 124 188 253 225 181 123 112 162 183 196 203 201 203 199 186 200 196 189 188 184 192 198 195 189 189 188 189 180 183 190 183 179 173 165 182 172 170 174 178 156 167 149 152
149 160 136 152 143 141 186 169 224 198 166 206 208 196 207 209 203 207 204 200 201 195 202 197 191 191 191 193 208 192 200 189 190 188 186 199 186 182 181 173 181 175 180 174 180 170 169 173 173
165 142 160 177 174 124 223 209 221 216 156 203 223 235 223 217 214 212 204 207 203 202 194 201 196 192 194 195 205 211 200 198 193 196 189 193 196 186 184 179 181 182 182 178 176 176 184 185 192
185 208 195 167 175 148 226 239 217 203 230 245 242 227 221 219 222 219 215 208 206 202 197 197 201 201 199 195 199 203 223 202 202 202 192 195 197 193 192 183 186 179 178 186 185 187 194 203 199
206 220 215 155 207 161 208 248 236 166 217 245 246 240 226 222 219 220 221 217 208 205 202 197 198 205 202 200 199 203 200 197 202 216 203 196 198 199 195 192 189 177 188 193 195 196 204 202 206
202 233 221 210 177 213 200 244 204 205 213 235 255 241 233 229 227 218 219 221 215 214 211 208 200 200 206 201 204 197 200 202 213 208 209 207 198 200 200 197 192 184 197 198 198 203 207 215 214
309 223 213 204 98 221 228 247 251 240 234 241 243 243 236 225 220 208 202 211 223 217 217 218 208 200 198 200 198 191 194 192 205 204 219 210 206 200 203 206 198 195 207 208 200 208 212 210 241
198 231 231 104 110 240 243 260 264 251 242 243 245 234 237 229 208 186 212 216 214 221 221 220 220 215 196 199 202 201 199 204 204 200 201 205 208 205 205 208 200 201 205 202 191 159 156 228 194
221 239 234 332 163 239 290 268 247 242 240 239 245 249 246 238 238 220 202 224 232 226 224 228 226 220 211 190 199 195 200 176 202 202 194 206 201 204 203 214 199 195 195 205 188 193 206 214 178
226 194 188 168 260 271 294 278 229 228 231 229 241 236 233 230 229 244 240 235 234 244 236 238 231 227 217 187 191 199 200 202 199 199 198 197 199 201 204 199 201 201 200 205 204 203 203 185 198
201 151 198 172 249 317 205 261 244 97 253 250 224 212 210 185 214 197 208 259 258 255 238 233 233 228 221 216 189 200 210 216 210 191 189 192 194 203 202 204 199 195 208 214 201 190 203 201 210
129 116 101 112 224 256 250 223 259 222 242 222 154 187 169 181 162 143 120 71 39 12 236 222 224 221 219 216 211 199 211 212 214 193 178 184 180 195 202 205 211 211 209 215 210 208 209 212 214
178 160 180 224 199 254 20 207 250 262 217 275 210 183 181 175 173 150 116 71 39 41 40 41 209 210 211 214 221 206 211 212 219 200 178 165 172 187 202 205 211 215 212 208 212 208 205 204 213
191 191 182 205 198 250 97 228 249 271 354 236 340 179 166 179 170 158 99 57 50 44 50 89 77 151 207 208 215 219 128 150 174 166 175 175 189 199 208 207 211 213 209 210 199 194 195 195 207
167 208 207 102 80 218 205 250 276 196 219 218 216 192 195 181 173 165 145 85 62 61 48 73 106 88 89 108 80 62 68 90 110 92 68 67 75 90 136 172 190 193 190 189 183 202 201 201 211
211 155 161 211 205 233 234 245 251 195 231 215 212 207 185 182 180 165 144 117 89 78 81 79 86 95 98 97 87 78 72 70 72 75 80 81 83 72 83 103 139 185 215 197 197 205 196 205 215
169 189 220 224 225 223 249 246 285 256 208 211 203 197 183 183 177 168 137 115 103 90 89 87 91 94 89 90 98 91 84 87 85 82 76 67 93 65 38 346 222 240 264 259 266 260 227 223 230
221 214 204 200 207 238 270 264 101 55 266 206 189 177 176 177 169 156 151 140 122 110 97 89 86 79 73 78 88 89 88 83 79 74 66 53 57 55 38 30 9 351 326 286 281 284 249 236 236